レモン-パンスターズ彗星

P/2012 WA34 ( Lemmon-PanSTARRS ) 2023

English version
Home page
Updated on May 29, 2022

---------------------------------------------------------------------

・ プロフィール

・ 軌道要素

Epoch 2023 June 25.0 TT = JDT 2460120.5
T 2023 July 8.88454 TT                                  MPC
q   3.0712282            (2000.0)            P               Q
n   0.09741643     Peri.  356.64860     -0.00384531     -0.99438420
a   4.6778675      Node    93.55289     +0.91992175     -0.04498507
e   0.3434555      Incl.    6.08272     +0.39208314     +0.09579353
P  10.1
From 30 observations 2011 Sept. 26-2013 Jan. 18, mean residual 0".4.

・ 光度変化

        m1 = 13.5 + 5 logΔ + 10.0 log r

---------------------------------------------------------------------

軌道要素はM.P.E.C. 2013-C52に掲載されたものです。
光度グラフはComet for Windowsで作成したものです。

---------------------------------------------------------------------

Copyright(C) Seiichi Yoshida (comet@aerith.net). All rights reserved.